This demonstration page uses our WeatherBlox Daily Observations layout. Learn more.

Left ArrowRight Arrow

36.17497, -115.13722

Hourly Observations for April 2, 2017

Temp ( °F °C ) Dew Point ( °F °C ) Humidity (%) Winds ( mph kmh ) Pressure ( in mb ) Visibility ( mi km ) Precip ( " mm )
12:53 am 00:53 Clear 59 15 37 2.8 44 44 N N/A 29.99 1016 10 16.0934 N/A
1:53 am 01:53 Clear 57 13.9 38 3.3 49 49 N 3 6 29.99 1016 10 16.0934 N/A
2:53 am 02:53 Clear 57 13.9 38 3.3 49 49 WNW 6 9 29.98 1015 10 16.0934 N/A
3:53 am 03:53 Clear 54 12.2 38 3.3 55 55 N 3 6 29.97 1015 10 16.0934 N/A
4:53 am 04:53 Clear 53 11.7 37 2.8 55 55 N 6 9 29.96 1015 10 16.0934 N/A
5:53 am 05:53 Clear 52 11.1 37 2.8 57 57 N 5 7 29.97 1015 10 16.0934 N/A
6:53 am 06:53 Sunny 54 12.2 36 2.2 51 51 NNW 5 7 29.99 1016 10 16.0934 N/A
7:53 am 07:53 Sunny 61 16.1 36 2.2 39 39 N 7 11 29.99 1016 10 16.0934 N/A
8:53 am 08:53 Sunny 64 17.8 35 1.7 34 34 NNE 8 13 30 1016 10 16.0934 N/A
9:53 am 09:53 Sunny 66 18.9 34 1.1 30 30 N N/A 29.99 1016 10 16.0934 N/A
10:53 am 10:53 Sunny 70 21.1 35 1.7 28 28 ENE 6 9 29.97 1015 10 16.0934 N/A
11:53 am 11:53 Sunny 71 21.7 34 1.1 26 26 E 3 6 29.95 1014 10 16.0934 N/A
12:53 pm 12:53 Sunny 75 23.9 32 undefined 21 21 VRB 3 6 29.92 1013 10 16.0934 N/A
1:53 pm 13:53 Sunny 76 24.4 31 -0.6 19 19 VRB 3 6 29.89 1012 10 16.0934 N/A
2:53 pm 14:53 Sunny 79 26.1 31 -0.6 17 17 S 5 7 29.85 1011 10 16.0934 N/A
3:53 pm 15:53 Sunny 82 27.8 29 -1.7 14 14 SW 13 20 29.81 1010 10 16.0934 N/A
4:53 pm 16:53 Sunny 82 27.8 28 -2.2 14 14 SW 9 15 29.79 1009 10 16.0934 N/A
5:53 pm 17:53 Sunny 81 27.2 26 -3.3 13 13 N 3 6 29.79 1009 10 16.0934 N/A
6:53 pm 18:53 Sunny 80 26.7 26 -3.3 14 14 N N/A 29.78 1009 10 16.0934 N/A
7:53 pm 19:53 Clear 77 25 28 -2.2 16 16 SW 8 13 29.78 1008 10 16.0934 N/A
8:53 pm 20:53 Clear 75 23.9 27 -2.8 17 17 W 7 11 29.78 1008 10 16.0934 N/A
9:53 pm 21:53 Clear 71 21.7 31 -0.6 23 23 N 7 11 29.78 1008 10 16.0934 N/A
10:53 pm 22:53 Clear 66 18.9 31 -0.6 27 27 N 5 7 29.78 1008 10 16.0934 N/A
11:53 pm 23:53 Clear 68 20 31 -0.6 25 25 N 7 11 29.77 1008 10 16.0934 N/A

Powered by AerisWeather